Showing default

OPS 9342 (IDSCS 20), 3285

Orbit data source: Space-Track

OPS 9342 (IDSCS 20), 3285 is a payload satellite owned by SAMSO (US) in GEO that was launched on Thu, 13 Jun 1968 UTC via a TITAN IIIC launch vehicle from the Air Force Eastern Test Range (AFETR). Payload-class satellites include a variety of spacecraft equipped with specific instruments for various scientific and technological missions. These include communications satellites like Starlink; space stations such as the ISS; scientific satellites like the Hubble; Earth observation satellites from companies like Planet Labs, Umbra, and HawkEye 360; GPS; miniature CubeSats for education and research; and military/defense satellites.

Loading next visibility...
Identifier
3285, 1968-050B
Orbit
GEO
Country
Flag of USUS
Related business
Manufacturer
Philco-Ford
Mission
Non-operational spacecraft
Bus & Motor
IDCSP, Unknown motor
Mass
45 kg wet, 45 kg dry
Launch date (UTC)
1968-06-13 (58 years ago)
Launch vehicle
TITAN IIIC
Launch site
Air Force Eastern Test Range (AFETR)
Object type
Payload
Rocket body
Debris
Shape & HBR
Unknown
Radar Cross Section
Medium (>0.1 m² and <1 m²)

Expand to show TLE details & history
Last TLE update: 11 hours ago

TLE from 11 hours ago
0 OPS 9342 (IDSCS 20)
1 03285U 68050B   26034.11261539 -.00000125  00000-0  00000-0 0  9999
2 03285   6.9644  52.9937 0015377 157.0232 230.5340  1.07819527226723
Epoch: 2026-02-03T02:42Z
TLE epoch observation values (Epoch: 2026-02-03T02:42:09.969Z)
Latitude
3.19703°
Longitude
-93.57233°
Altitude
33,833.221 km
Speed
3.147 km/s
True Right ascension
05h 21m 04s
True Declination
3° 11' 37"
Sunlit
Object was in daylight at epoch
Visualization orbit readout
Latitude
Unknown
Longitude
Unknown
Altitude
Unknown
Speed
Unknown
Apparent Right ascension
Unknown
Apparent Declination
Unknown
Sunlit
N/A
Visualization observer readout
Local Sidereal Time
15:25:46
Azimuth
Unknown
Elevation
Unknown
Doppler factor
Unknown
Orbital elements
Apogee altitude
33,857.979 km
Perigee altitude
33,734.427 km
Semi-major axis
40,174.34 km
Eccentricity
0.00154
Inclination
6.9644°
RAAN
52.9937°
Arg. of periapsis
157.0232°
True anomaly
230.39813°
Mean anomaly
230.534°
Eccentric anomaly
230.46605°
Mean motion
0.26954 °/min
Orbital period
1,335.62 mins
BSTAR
0
Loading maneuver chart data...
Computing Atmospheric mass density...
Loading historical data...
Loading historical data...
Loading historical data...
Loading historical data...
Loading historical data...
Loading historical data...
Loading historical data...

Documentation

Showing up to 5 results
|